Netzbetreibername:;SW Bad Pyrmont GmbH;;
Netz- oder Umspannebene:;Umspannung MS/NS;;
Lastgangtyp:;Summe aller Einspeisungen;;
gesetzliche Grundlage:;� 23c Abs. 3 Nr. 6 EnWG;;
Einheit:;kW;;
Betrachtungszeitraum:;01.01.2022;31.12.2022;
;;;
Datum;von;bis;Wert
01.01.2022;00:00;00:15;224
01.01.2022;00:15;00:30;232
01.01.2022;00:30;00:45;163
01.01.2022;00:45;01:00;160
01.01.2022;01:00;01:15;162
01.01.2022;01:15;01:30;162
01.01.2022;01:30;01:45;163
01.01.2022;01:45;02:00;162
01.01.2022;02:00;02:15;167
01.01.2022;02:15;02:30;160
01.01.2022;02:30;02:45;262
01.01.2022;02:45;03:00;215
01.01.2022;03:00;03:15;165
01.01.2022;03:15;03:30;160
01.01.2022;03:30;03:45;161
01.01.2022;03:45;04:00;132
01.01.2022;04:00;04:15;112
01.01.2022;04:15;04:30;190
01.01.2022;04:30;04:45;306
01.01.2022;04:45;05:00;310
01.01.2022;05:00;05:15;297
01.01.2022;05:15;05:30;304
01.01.2022;05:30;05:45;297
01.01.2022;05:45;06:00;289
01.01.2022;06:00;06:15;302
01.01.2022;06:15;06:30;308
01.01.2022;06:30;06:45;303
01.01.2022;06:45;07:00;304
01.01.2022;07:00;07:15;301
01.01.2022;07:15;07:30;299
01.01.2022;07:30;07:45;300
01.01.2022;07:45;08:00;300
01.01.2022;08:00;08:15;297
01.01.2022;08:15;08:30;299
01.01.2022;08:30;08:45;299
01.01.2022;08:45;09:00;298
01.01.2022;09:00;09:15;296
01.01.2022;09:15;09:30;294
01.01.2022;09:30;09:45;295
01.01.2022;09:45;10:00;293
01.01.2022;10:00;10:15;293
01.01.2022;10:15;10:30;294
01.01.2022;10:30;10:45;293
01.01.2022;10:45;11:00;292
01.01.2022;11:00;11:15;294
01.01.2022;11:15;11:30;301
01.01.2022;11:30;11:45;300
01.01.2022;11:45;12:00;300
01.01.2022;12:00;12:15;305
01.01.2022;12:15;12:30;308
01.01.2022;12:30;12:45;305
01.01.2022;12:45;13:00;244
01.01.2022;13:00;13:15;237
01.01.2022;13:15;13:30;175
01.01.2022;13:30;13:45;164
01.01.2022;13:45;14:00;163
01.01.2022;14:00;14:15;163
01.01.2022;14:15;14:30;209
01.01.2022;14:30;14:45;305
01.01.2022;14:45;15:00;286
01.01.2022;15:00;15:15;263
01.01.2022;15:15;15:30;248
01.01.2022;15:30;15:45;232
01.01.2022;15:45;16:00;231
01.01.2022;16:00;16:15;232
01.01.2022;16:15;16:30;229
01.01.2022;16:30;16:45;160
01.01.2022;16:45;17:00;162
01.01.2022;17:00;17:15;161
01.01.2022;17:15;17:30;162
01.01.2022;17:30;17:45;281
01.01.2022;17:45;18:00;300
01.01.2022;18:00;18:15;287
01.01.2022;18:15;18:30;251
01.01.2022;18:30;18:45;236
01.01.2022;18:45;19:00;233
01.01.2022;19:00;19:15;228
01.01.2022;19:15;19:30;227
01.01.2022;19:30;19:45;241
01.01.2022;19:45;20:00;246
01.01.2022;20:00;20:15;248
01.01.2022;20:15;20:30;177
01.01.2022;20:30;20:45;170
01.01.2022;20:45;21:00;174
01.01.2022;21:00;21:15;177
01.01.2022;21:15;21:30;280
01.01.2022;21:30;21:45;272
01.01.2022;21:45;22:00;220
01.01.2022;22:00;22:15;171
01.01.2022;22:15;22:30;179
01.01.2022;22:30;22:45;171
01.01.2022;22:45;23:00;225
01.01.2022;23:00;23:15;307
01.01.2022;23:15;23:30;251
01.01.2022;23:30;23:45;174
02.01.2022;23:45;00:00;164
02.01.2022;00:00;00:15;157
02.01.2022;00:15;00:30;206
02.01.2022;00:30;00:45;304
02.01.2022;00:45;01:00;308
02.01.2022;01:00;01:15;306
02.01.2022;01:15;01:30;302,88
02.01.2022;01:30;01:45;303,16
02.01.2022;01:45;02:00;284,92
02.01.2022;02:00;02:15;262,4
02.01.2022;02:15;02:30;284,76
02.01.2022;02:30;02:45;273,04
02.01.2022;02:45;03:00;283,88
02.01.2022;03:00;03:15;284,2
02.01.2022;03:15;03:30;277,08
02.01.2022;03:30;03:45;268,28
02.01.2022;03:45;04:00;284,52
02.01.2022;04:00;04:15;276,92
02.01.2022;04:15;04:30;271
02.01.2022;04:30;04:45;274,12
02.01.2022;04:45;05:00;265,32
02.01.2022;05:00;05:15;275
02.01.2022;05:15;05:30;281
02.01.2022;05:30;05:45;285
02.01.2022;05:45;06:00;289
02.01.2022;06:00;06:15;297
02.01.2022;06:15;06:30;304
02.01.2022;06:30;06:45;305
02.01.2022;06:45;07:00;304
02.01.2022;07:00;07:15;302
02.01.2022;07:15;07:30;300
02.01.2022;07:30;07:45;300
02.01.2022;07:45;08:00;300
02.01.2022;08:00;08:15;297
02.01.2022;08:15;08:30;296
02.01.2022;08:30;08:45;294
02.01.2022;08:45;09:00;296
02.01.2022;09:00;09:15;297
02.01.2022;09:15;09:30;294
02.01.2022;09:30;09:45;295
02.01.2022;09:45;10:00;295
02.01.2022;10:00;10:15;294
02.01.2022;10:15;10:30;293
02.01.2022;10:30;10:45;294
02.01.2022;10:45;11:00;298
02.01.2022;11:00;11:15;300
02.01.2022;11:15;11:30;297
02.01.2022;11:30;11:45;296
02.01.2022;11:45;12:00;298
02.01.2022;12:00;12:15;292
02.01.2022;12:15;12:30;298
02.01.2022;12:30;12:45;297
02.01.2022;12:45;13:00;297
02.01.2022;13:00;13:15;297
02.01.2022;13:15;13:30;295
02.01.2022;13:30;13:45;295
02.01.2022;13:45;14:00;297
02.01.2022;14:00;14:15;296
02.01.2022;14:15;14:30;295
02.01.2022;14:30;14:45;295
02.01.2022;14:45;15:00;295
02.01.2022;15:00;15:15;296
02.01.2022;15:15;15:30;294
02.01.2022;15:30;15:45;295
02.01.2022;15:45;16:00;297
02.01.2022;16:00;16:15;298
02.01.2022;16:15;16:30;295
02.01.2022;16:30;16:45;293
02.01.2022;16:45;17:00;295
02.01.2022;17:00;17:15;292
02.01.2022;17:15;17:30;292
02.01.2022;17:30;17:45;291
02.01.2022;17:45;18:00;294
02.01.2022;18:00;18:15;293
02.01.2022;18:15;18:30;292
02.01.2022;18:30;18:45;291
02.01.2022;18:45;19:00;270
02.01.2022;19:00;19:15;258
02.01.2022;19:15;19:30;277
02.01.2022;19:30;19:45;292
02.01.2022;19:45;20:00;299
02.01.2022;20:00;20:15;270
02.01.2022;20:15;20:30;251
02.01.2022;20:30;20:45;252
02.01.2022;20:45;21:00;251
02.01.2022;21:00;21:15;245
02.01.2022;21:15;21:30;244
02.01.2022;21:30;21:45;246
02.01.2022;21:45;22:00;247
02.01.2022;22:00;22:15;241
02.01.2022;22:15;22:30;237
02.01.2022;22:30;22:45;231
02.01.2022;22:45;23:00;230
02.01.2022;23:00;23:15;259
02.01.2022;23:15;23:30;258
02.01.2022;23:30;23:45;258
03.01.2022;23:45;00:00;264
03.01.2022;00:00;00:15;203
03.01.2022;00:15;00:30;165
03.01.2022;00:30;00:45;166
03.01.2022;00:45;01:00;160
03.01.2022;01:00;01:15;218
03.01.2022;01:15;01:30;303
03.01.2022;01:30;01:45;295
03.01.2022;01:45;02:00;264
03.01.2022;02:00;02:15;254
03.01.2022;02:15;02:30;248
03.01.2022;02:30;02:45;257
03.01.2022;02:45;03:00;244
03.01.2022;03:00;03:15;248
03.01.2022;03:15;03:30;242,44
03.01.2022;03:30;03:45;238,88
03.01.2022;03:45;04:00;246,72
03.01.2022;04:00;04:15;241,16
03.01.2022;04:15;04:30;238,6
03.01.2022;04:30;04:45;248
03.01.2022;04:45;05:00;236
03.01.2022;05:00;05:15;248
03.01.2022;05:15;05:30;254
03.01.2022;05:30;05:45;251
03.01.2022;05:45;06:00;266
03.01.2022;06:00;06:15;302
03.01.2022;06:15;06:30;300
03.01.2022;06:30;06:45;294
03.01.2022;06:45;07:00;298
03.01.2022;07:00;07:15;292
03.01.2022;07:15;07:30;287
03.01.2022;07:30;07:45;282
03.01.2022;07:45;08:00;281
03.01.2022;08:00;08:15;278
03.01.2022;08:15;08:30;278
03.01.2022;08:30;08:45;280
03.01.2022;08:45;09:00;279
03.01.2022;09:00;09:15;283
03.01.2022;09:15;09:30;281
03.01.2022;09:30;09:45;281
03.01.2022;09:45;10:00;285
03.01.2022;10:00;10:15;289
03.01.2022;10:15;10:30;282
03.01.2022;10:30;10:45;284
03.01.2022;10:45;11:00;282
03.01.2022;11:00;11:15;280
03.01.2022;11:15;11:30;279
03.01.2022;11:30;11:45;281
03.01.2022;11:45;12:00;284
03.01.2022;12:00;12:15;289
03.01.2022;12:15;12:30;292
03.01.2022;12:30;12:45;287
03.01.2022;12:45;13:00;285
03.01.2022;13:00;13:15;283
03.01.2022;13:15;13:30;285
03.01.2022;13:30;13:45;282
03.01.2022;13:45;14:00;282
03.01.2022;14:00;14:15;285
03.01.2022;14:15;14:30;285
03.01.2022;14:30;14:45;284
03.01.2022;14:45;15:00;282
03.01.2022;15:00;15:15;282
03.01.2022;15:15;15:30;282
03.01.2022;15:30;15:45;281
03.01.2022;15:45;16:00;281
03.01.2022;16:00;16:15;284
03.01.2022;16:15;16:30;281
03.01.2022;16:30;16:45;281
03.01.2022;16:45;17:00;279
03.01.2022;17:00;17:15;279
03.01.2022;17:15;17:30;280
03.01.2022;17:30;17:45;281
03.01.2022;17:45;18:00;269
03.01.2022;18:00;18:15;235
03.01.2022;18:15;18:30;238
03.01.2022;18:30;18:45;221
03.01.2022;18:45;19:00;222
03.01.2022;19:00;19:15;225
03.01.2022;19:15;19:30;234
03.01.2022;19:30;19:45;240
03.01.2022;19:45;20:00;242
03.01.2022;20:00;20:15;257
03.01.2022;20:15;20:30;260
03.01.2022;20:30;20:45;261
03.01.2022;20:45;21:00;265
03.01.2022;21:00;21:15;277
03.01.2022;21:15;21:30;273
03.01.2022;21:30;21:45;268
03.01.2022;21:45;22:00;276
03.01.2022;22:00;22:15;268
03.01.2022;22:15;22:30;273
03.01.2022;22:30;22:45;257
03.01.2022;22:45;23:00;269
03.01.2022;23:00;23:15;256
03.01.2022;23:15;23:30;273
03.01.2022;23:30;23:45;281
04.01.2022;23:45;00:00;298
04.01.2022;00:00;00:15;257
04.01.2022;00:15;00:30;246
04.01.2022;00:30;00:45;252
04.01.2022;00:45;01:00;247
04.01.2022;01:00;01:15;248
04.01.2022;01:15;01:30;257
04.01.2022;01:30;01:45;248
04.01.2022;01:45;02:00;255
04.01.2022;02:00;02:15;248
04.01.2022;02:15;02:30;253
04.01.2022;02:30;02:45;241
04.01.2022;02:45;03:00;243
04.01.2022;03:00;03:15;238
04.01.2022;03:15;03:30;233
04.01.2022;03:30;03:45;245
04.01.2022;03:45;04:00;268
04.01.2022;04:00;04:15;252
04.01.2022;04:15;04:30;258
04.01.2022;04:30;04:45;260
04.01.2022;04:45;05:00;232
04.01.2022;05:00;05:15;155
04.01.2022;05:15;05:30;150
04.01.2022;05:30;05:45;159
04.01.2022;05:45;06:00;178
04.01.2022;06:00;06:15;293
04.01.2022;06:15;06:30;293
04.01.2022;06:30;06:45;292
04.01.2022;06:45;07:00;292
04.01.2022;07:00;07:15;283
04.01.2022;07:15;07:30;280
04.01.2022;07:30;07:45;278
04.01.2022;07:45;08:00;274
04.01.2022;08:00;08:15;272
04.01.2022;08:15;08:30;273
04.01.2022;08:30;08:45;273
04.01.2022;08:45;09:00;275
04.01.2022;09:00;09:15;274
04.01.2022;09:15;09:30;274
04.01.2022;09:30;09:45;273
04.01.2022;09:45;10:00;274
04.01.2022;10:00;10:15;273
04.01.2022;10:15;10:30;273
04.01.2022;10:30;10:45;274
04.01.2022;10:45;11:00;273
04.01.2022;11:00;11:15;273
04.01.2022;11:15;11:30;274
04.01.2022;11:30;11:45;273
04.01.2022;11:45;12:00;273
04.01.2022;12:00;12:15;274
04.01.2022;12:15;12:30;280
04.01.2022;12:30;12:45;281
04.01.2022;12:45;13:00;279
04.01.2022;13:00;13:15;283
04.01.2022;13:15;13:30;287
04.01.2022;13:30;13:45;288
04.01.2022;13:45;14:00;288
04.01.2022;14:00;14:15;285
04.01.2022;14:15;14:30;284
04.01.2022;14:30;14:45;287
04.01.2022;14:45;15:00;287
04.01.2022;15:00;15:15;286
04.01.2022;15:15;15:30;282
04.01.2022;15:30;15:45;280
04.01.2022;15:45;16:00;281
04.01.2022;16:00;16:15;281
04.01.2022;16:15;16:30;283
04.01.2022;16:30;16:45;283
04.01.2022;16:45;17:00;283
04.01.2022;17:00;17:15;282
04.01.2022;17:15;17:30;285
04.01.2022;17:30;17:45;287
04.01.2022;17:45;18:00;289
04.01.2022;18:00;18:15;287
04.01.2022;18:15;18:30;289
04.01.2022;18:30;18:45;293
04.01.2022;18:45;19:00;294
04.01.2022;19:00;19:15;296
04.01.2022;19:15;19:30;298
04.01.2022;19:30;19:45;301
04.01.2022;19:45;20:00;306
04.01.2022;20:00;20:15;311
04.01.2022;20:15;20:30;312
04.01.2022;20:30;20:45;312
04.01.2022;20:45;21:00;317
04.01.2022;21:00;21:15;318
04.01.2022;21:15;21:30;315
04.01.2022;21:30;21:45;317
04.01.2022;21:45;22:00;315
04.01.2022;22:00;22:15;317
04.01.2022;22:15;22:30;311
04.01.2022;22:30;22:45;309
04.01.2022;22:45;23:00;308
04.01.2022;23:00;23:15;310
04.01.2022;23:15;23:30;309
04.01.2022;23:30;23:45;311
05.01.2022;23:45;00:00;308
05.01.2022;00:00;00:15;313
05.01.2022;00:15;00:30;308
05.01.2022;00:30;00:45;308
05.01.2022;00:45;01:00;310
05.01.2022;01:00;01:15;313
05.01.2022;01:15;01:30;312
05.01.2022;01:30;01:45;311
05.01.2022;01:45;02:00;303
05.01.2022;02:00;02:15;300
05.01.2022;02:15;02:30;306
05.01.2022;02:30;02:45;302
05.01.2022;02:45;03:00;307
05.01.2022;03:00;03:15;282
05.01.2022;03:15;03:30;260
05.01.2022;03:30;03:45;264
05.01.2022;03:45;04:00;170
05.01.2022;04:00;04:15;173
05.01.2022;04:15;04:30;176
05.01.2022;04:30;04:45;176
05.01.2022;04:45;05:00;280
05.01.2022;05:00;05:15;249
05.01.2022;05:15;05:30;162
05.01.2022;05:30;05:45;172
05.01.2022;05:45;06:00;171
05.01.2022;06:00;06:15;170
05.01.2022;06:15;06:30;273
05.01.2022;06:30;06:45;301
05.01.2022;06:45;07:00;301
05.01.2022;07:00;07:15;290
05.01.2022;07:15;07:30;275
05.01.2022;07:30;07:45;278
05.01.2022;07:45;08:00;284
05.01.2022;08:00;08:15;283
05.01.2022;08:15;08:30;286
05.01.2022;08:30;08:45;286
05.01.2022;08:45;09:00;288
05.01.2022;09:00;09:15;288
05.01.2022;09:15;09:30;285
05.01.2022;09:30;09:45;285
05.01.2022;09:45;10:00;288
05.01.2022;10:00;10:15;289
05.01.2022;10:15;10:30;287
05.01.2022;10:30;10:45;280
05.01.2022;10:45;11:00;282
05.01.2022;11:00;11:15;286
05.01.2022;11:15;11:30;286
05.01.2022;11:30;11:45;288
05.01.2022;11:45;12:00;287
05.01.2022;12:00;12:15;288
05.01.2022;12:15;12:30;287
05.01.2022;12:30;12:45;290
05.01.2022;12:45;13:00;288
05.01.2022;13:00;13:15;294
05.01.2022;13:15;13:30;296
05.01.2022;13:30;13:45;295
05.01.2022;13:45;14:00;294
05.01.2022;14:00;14:15;296
05.01.2022;14:15;14:30;295
05.01.2022;14:30;14:45;291
05.01.2022;14:45;15:00;291
05.01.2022;15:00;15:15;293
05.01.2022;15:15;15:30;292
05.01.2022;15:30;15:45;293
05.01.2022;15:45;16:00;296
05.01.2022;16:00;16:15;297
05.01.2022;16:15;16:30;297
05.01.2022;16:30;16:45;298
05.01.2022;16:45;17:00;300
05.01.2022;17:00;17:15;301
05.01.2022;17:15;17:30;300
05.01.2022;17:30;17:45;300
05.01.2022;17:45;18:00;299
05.01.2022;18:00;18:15;300
05.01.2022;18:15;18:30;300
05.01.2022;18:30;18:45;301
05.01.2022;18:45;19:00;299
05.01.2022;19:00;19:15;298
05.01.2022;19:15;19:30;302
05.01.2022;19:30;19:45;306
05.01.2022;19:45;20:00;312
05.01.2022;20:00;20:15;320
05.01.2022;20:15;20:30;320
05.01.2022;20:30;20:45;320
05.01.2022;20:45;21:00;318
05.01.2022;21:00;21:15;319
05.01.2022;21:15;21:30;320
05.01.2022;21:30;21:45;318
05.01.2022;21:45;22:00;317
05.01.2022;22:00;22:15;315
05.01.2022;22:15;22:30;317
05.01.2022;22:30;22:45;312
05.01.2022;22:45;23:00;315
05.01.2022;23:00;23:15;316
05.01.2022;23:15;23:30;290
05.01.2022;23:30;23:45;289
06.01.2022;23:45;00:00;270
06.01.2022;00:00;00:15;203
06.01.2022;00:15;00:30;176
06.01.2022;00:30;00:45;178
06.01.2022;00:45;01:00;179
06.01.2022;01:00;01:15;210
06.01.2022;01:15;01:30;315
06.01.2022;01:30;01:45;283
06.01.2022;01:45;02:00;266
06.01.2022;02:00;02:15;226
06.01.2022;02:15;02:30;176
06.01.2022;02:30;02:45;178
06.01.2022;02:45;03:00;178
06.01.2022;03:00;03:15;208
06.01.2022;03:15;03:30;317
06.01.2022;03:30;03:45;306
06.01.2022;03:45;04:00;259
06.01.2022;04:00;04:15;179
06.01.2022;04:15;04:30;179
06.01.2022;04:30;04:45;180
06.01.2022;04:45;05:00;191
06.01.2022;05:00;05:15;313
06.01.2022;05:15;05:30;317
06.01.2022;05:30;05:45;289
06.01.2022;05:45;06:00;257
06.01.2022;06:00;06:15;276
06.01.2022;06:15;06:30;310
06.01.2022;06:30;06:45;311
06.01.2022;06:45;07:00;309
06.01.2022;07:00;07:15;307
06.01.2022;07:15;07:30;304
06.01.2022;07:30;07:45;296
06.01.2022;07:45;08:00;296
06.01.2022;08:00;08:15;290
06.01.2022;08:15;08:30;292
06.01.2022;08:30;08:45;291
06.01.2022;08:45;09:00;292
06.01.2022;09:00;09:15;293
06.01.2022;09:15;09:30;294
06.01.2022;09:30;09:45;290
06.01.2022;09:45;10:00;291
06.01.2022;10:00;10:15;293
06.01.2022;10:15;10:30;293
06.01.2022;10:30;10:45;287
06.01.2022;10:45;11:00;285
06.01.2022;11:00;11:15;292
06.01.2022;11:15;11:30;287
06.01.2022;11:30;11:45;284
06.01.2022;11:45;12:00;289
06.01.2022;12:00;12:15;286
06.01.2022;12:15;12:30;286
06.01.2022;12:30;12:45;289
06.01.2022;12:45;13:00;294
06.01.2022;13:00;13:15;299
06.01.2022;13:15;13:30;290
06.01.2022;13:30;13:45;298
06.01.2022;13:45;14:00;297
06.01.2022;14:00;14:15;298
06.01.2022;14:15;14:30;298
06.01.2022;14:30;14:45;296
06.01.2022;14:45;15:00;292
06.01.2022;15:00;15:15;290
06.01.2022;15:15;15:30;289
06.01.2022;15:30;15:45;286
06.01.2022;15:45;16:00;287
06.01.2022;16:00;16:15;289
06.01.2022;16:15;16:30;288
06.01.2022;16:30;16:45;286
06.01.2022;16:45;17:00;288
06.01.2022;17:00;17:15;288
06.01.2022;17:15;17:30;288
06.01.2022;17:30;17:45;289
06.01.2022;17:45;18:00;290
06.01.2022;18:00;18:15;292
06.01.2022;18:15;18:30;294
06.01.2022;18:30;18:45;294
06.01.2022;18:45;19:00;293
06.01.2022;19:00;19:15;294
06.01.2022;19:15;19:30;295
06.01.2022;19:30;19:45;297
06.01.2022;19:45;20:00;304
06.01.2022;20:00;20:15;306
06.01.2022;20:15;20:30;309
06.01.2022;20:30;20:45;309
06.01.2022;20:45;21:00;309
06.01.2022;21:00;21:15;314
06.01.2022;21:15;21:30;315
06.01.2022;21:30;21:45;314
06.01.2022;21:45;22:00;310
06.01.2022;22:00;22:15;310
06.01.2022;22:15;22:30;310
06.01.2022;22:30;22:45;309
06.01.2022;22:45;23:00;310
06.01.2022;23:00;23:15;311
06.01.2022;23:15;23:30;313
06.01.2022;23:30;23:45;312
07.01.2022;23:45;00:00;309
07.01.2022;00:00;00:15;309
07.01.2022;00:15;00:30;311
07.01.2022;00:30;00:45;310
07.01.2022;00:45;01:00;311
07.01.2022;01:00;01:15;311
07.01.2022;01:15;01:30;311
07.01.2022;01:30;01:45;316
07.01.2022;01:45;02:00;314
07.01.2022;02:00;02:15;315
07.01.2022;02:15;02:30;314
07.01.2022;02:30;02:45;314
07.01.2022;02:45;03:00;314
07.01.2022;03:00;03:15;308
07.01.2022;03:15;03:30;307
07.01.2022;03:30;03:45;298
07.01.2022;03:45;04:00;295
07.01.2022;04:00;04:15;303
07.01.2022;04:15;04:30;295
07.01.2022;04:30;04:45;283
07.01.2022;04:45;05:00;260
07.01.2022;05:00;05:15;172
07.01.2022;05:15;05:30;172
07.01.2022;05:30;05:45;171
07.01.2022;05:45;06:00;170
07.01.2022;06:00;06:15;192
07.01.2022;06:15;06:30;293
07.01.2022;06:30;06:45;303
07.01.2022;06:45;07:00;301
07.01.2022;07:00;07:15;282
07.01.2022;07:15;07:30;280
07.01.2022;07:30;07:45;289
07.01.2022;07:45;08:00;286
07.01.2022;08:00;08:15;281
07.01.2022;08:15;08:30;282
07.01.2022;08:30;08:45;283
07.01.2022;08:45;09:00;285
07.01.2022;09:00;09:15;285
07.01.2022;09:15;09:30;282
07.01.2022;09:30;09:45;282
07.01.2022;09:45;10:00;283
07.01.2022;10:00;10:15;282
07.01.2022;10:15;10:30;281
07.01.2022;10:30;10:45;280
07.01.2022;10:45;11:00;283
07.01.2022;11:00;11:15;283
07.01.2022;11:15;11:30;284
07.01.2022;11:30;11:45;284
07.01.2022;11:45;12:00;285
07.01.2022;12:00;12:15;284
07.01.2022;12:15;12:30;281
07.01.2022;12:30;12:45;288
07.01.2022;12:45;13:00;286
07.01.2022;13:00;13:15;288
07.01.2022;13:15;13:30;292
07.01.2022;13:30;13:45;292
07.01.2022;13:45;14:00;293
07.01.2022;14:00;14:15;294
07.01.2022;14:15;14:30;294
07.01.2022;14:30;14:45;296
07.01.2022;14:45;15:00;296
07.01.2022;15:00;15:15;294
07.01.2022;15:15;15:30;293
07.01.2022;15:30;15:45;298
07.01.2022;15:45;16:00;300
07.01.2022;16:00;16:15;301
07.01.2022;16:15;16:30;302
07.01.2022;16:30;16:45;302
07.01.2022;16:45;17:00;301
07.01.2022;17:00;17:15;301
07.01.2022;17:15;17:30;292
07.01.2022;17:30;17:45;294
07.01.2022;17:45;18:00;292
07.01.2022;18:00;18:15;293
07.01.2022;18:15;18:30;292
07.01.2022;18:30;18:45;293
07.01.2022;18:45;19:00;292
07.01.2022;19:00;19:15;292
07.01.2022;19:15;19:30;288
07.01.2022;19:30;19:45;287
07.01.2022;19:45;20:00;295
07.01.2022;20:00;20:15;293
07.01.2022;20:15;20:30;294
07.01.2022;20:30;20:45;297
07.01.2022;20:45;21:00;300
07.01.2022;21:00;21:15;301
07.01.2022;21:15;21:30;304
07.01.2022;21:30;21:45;304
07.01.2022;21:45;22:00;304
07.01.2022;22:00;22:15;308
07.01.2022;22:15;22:30;315
07.01.2022;22:30;22:45;314
07.01.2022;22:45;23:00;312
07.01.2022;23:00;23:15;318
07.01.2022;23:15;23:30;314
07.01.2022;23:30;23:45;309
08.01.2022;23:45;00:00;307
08.01.2022;00:00;00:15;307
08.01.2022;00:15;00:30;310
08.01.2022;00:30;00:45;309
08.01.2022;00:45;01:00;309
08.01.2022;01:00;01:15;310
08.01.2022;01:15;01:30;309
08.01.2022;01:30;01:45;311
08.01.2022;01:45;02:00;311
08.01.2022;02:00;02:15;310
08.01.2022;02:15;02:30;307
08.01.2022;02:30;02:45;309
08.01.2022;02:45;03:00;309
08.01.2022;03:00;03:15;311
08.01.2022;03:15;03:30;309
08.01.2022;03:30;03:45;311
08.01.2022;03:45;04:00;310
08.01.2022;04:00;04:15;309
08.01.2022;04:15;04:30;311
08.01.2022;04:30;04:45;309
08.01.2022;04:45;05:00;310
08.01.2022;05:00;05:15;306
08.01.2022;05:15;05:30;306
08.01.2022;05:30;05:45;306
08.01.2022;05:45;06:00;308
08.01.2022;06:00;06:15;304
08.01.2022;06:15;06:30;302
08.01.2022;06:30;06:45;304
08.01.2022;06:45;07:00;303
08.01.2022;07:00;07:15;295
08.01.2022;07:15;07:30;295
08.01.2022;07:30;07:45;295
08.01.2022;07:45;08:00;295
08.01.2022;08:00;08:15;294
08.01.2022;08:15;08:30;293
08.01.2022;08:30;08:45;292
08.01.2022;08:45;09:00;292
08.01.2022;09:00;09:15;294
08.01.2022;09:15;09:30;292
08.01.2022;09:30;09:45;293
08.01.2022;09:45;10:00;293
08.01.2022;10:00;10:15;294
08.01.2022;10:15;10:30;295
08.01.2022;10:30;10:45;294
08.01.2022;10:45;11:00;294
08.01.2022;11:00;11:15;294
08.01.2022;11:15;11:30;292
08.01.2022;11:30;11:45;293
08.01.2022;11:45;12:00;294
08.01.2022;12:00;12:15;294
08.01.2022;12:15;12:30;293
08.01.2022;12:30;12:45;296
08.01.2022;12:45;13:00;294
08.01.2022;13:00;13:15;297
08.01.2022;13:15;13:30;296
08.01.2022;13:30;13:45;296
08.01.2022;13:45;14:00;296
08.01.2022;14:00;14:15;296
08.01.2022;14:15;14:30;297
08.01.2022;14:30;14:45;297
08.01.2022;14:45;15:00;298
08.01.2022;15:00;15:15;297
08.01.2022;15:15;15:30;298
08.01.2022;15:30;15:45;299
08.01.2022;15:45;16:00;299
08.01.2022;16:00;16:15;298
08.01.2022;16:15;16:30;298
08.01.2022;16:30;16:45;298
08.01.2022;16:45;17:00;297
08.01.2022;17:00;17:15;297
08.01.2022;17:15;17:30;296
08.01.2022;17:30;17:45;296
08.01.2022;17:45;18:00;296
08.01.2022;18:00;18:15;296
08.01.2022;18:15;18:30;295
08.01.2022;18:30;18:45;292
08.01.2022;18:45;19:00;293
08.01.2022;19:00;19:15;293
08.01.2022;19:15;19:30;295
08.01.2022;19:30;19:45;297
08.01.2022;19:45;20:00;297
08.01.2022;20:00;20:15;301
08.01.2022;20:15;20:30;302
08.01.2022;20:30;20:45;302
08.01.2022;20:45;21:00;303
08.01.2022;21:00;21:15;308
08.01.2022;21:15;21:30;310
08.01.2022;21:30;21:45;310
08.01.2022;21:45;22:00;305
08.01.2022;22:00;22:15;306
08.01.2022;22:15;22:30;310
08.01.2022;22:30;22:45;313
08.01.2022;22:45;23:00;312
08.01.2022;23:00;23:15;313
08.01.2022;23:15;23:30;312
08.01.2022;23:30;23:45;313
09.01.2022;23:45;00:00;306
09.01.2022;00:00;00:15;307
09.01.2022;00:15;00:30;267
09.01.2022;00:30;00:45;247
09.01.2022;00:45;01:00;252
09.01.2022;01:00;01:15;250
09.01.2022;01:15;01:30;257
09.01.2022;01:30;01:45;249
09.01.2022;01:45;02:00;247
09.01.2022;02:00;02:15;243
09.01.2022;02:15;02:30;240
09.01.2022;02:30;02:45;240
09.01.2022;02:45;03:00;240
09.01.2022;03:00;03:15;239
09.01.2022;03:15;03:30;238
09.01.2022;03:30;03:45;240
09.01.2022;03:45;04:00;238
09.01.2022;04:00;04:15;237
09.01.2022;04:15;04:30;180
09.01.2022;04:30;04:45;167
09.01.2022;04:45;05:00;170
09.01.2022;05:00;05:15;168
09.01.2022;05:15;05:30;258
09.01.2022;05:30;05:45;301
09.01.2022;05:45;06:00;239
09.01.2022;06:00;06:15;272
09.01.2022;06:15;06:30;296
09.01.2022;06:30;06:45;298
09.01.2022;06:45;07:00;296
09.01.2022;07:00;07:15;292
09.01.2022;07:15;07:30;291
09.01.2022;07:30;07:45;292
09.01.2022;07:45;08:00;292
09.01.2022;08:00;08:15;290
09.01.2022;08:15;08:30;291
09.01.2022;08:30;08:45;291
09.01.2022;08:45;09:00;291
09.01.2022;09:00;09:15;292
09.01.2022;09:15;09:30;289
09.01.2022;09:30;09:45;290
09.01.2022;09:45;10:00;294
09.01.2022;10:00;10:15;294
09.01.2022;10:15;10:30;293
09.01.2022;10:30;10:45;293
09.01.2022;10:45;11:00;294
09.01.2022;11:00;11:15;296
09.01.2022;11:15;11:30;296
09.01.2022;11:30;11:45;297
09.01.2022;11:45;12:00;295
09.01.2022;12:00;12:15;294
09.01.2022;12:15;12:30;295
09.01.2022;12:30;12:45;297
09.01.2022;12:45;13:00;297
09.01.2022;13:00;13:15;297
09.01.2022;13:15;13:30;297
09.01.2022;13:30;13:45;296
09.01.2022;13:45;14:00;297
09.01.2022;14:00;14:15;298
09.01.2022;14:15;14:30;297
09.01.2022;14:30;14:45;298
09.01.2022;14:45;15:00;296
09.01.2022;15:00;15:15;296
09.01.2022;15:15;15:30;296
09.01.2022;15:30;15:45;295
09.01.2022;15:45;16:00;294
09.01.2022;16:00;16:15;294
09.01.2022;16:15;16:30;294
09.01.2022;16:30;16:45;294
09.01.2022;16:45;17:00;294
09.01.2022;17:00;17:15;295
09.01.2022;17:15;17:30;295
09.01.2022;17:30;17:45;294
09.01.2022;17:45;18:00;294
09.01.2022;18:00;18:15;295
09.01.2022;18:15;18:30;294
09.01.2022;18:30;18:45;294
09.01.2022;18:45;19:00;294
09.01.2022;19:00;19:15;296